DW4604 Weather Reports


time (UTC)temp
C
wind
direction
speed
KPH
gust
KPH
rain 1hr
cm
rain 24hr
cm
rain mn
cm
humidity
%
barometer
mb
20211208135005 -3 64 4.8 14.5 0.00 0.00 0.00 94 1007.9
20211208134503 -3 64 4.8 16.1 0.00 0.00 0.00 94 1007.7
20211208134005 -3 66 4.8 16.1 0.00 0.00 0.00 94 1007.8
20211208133503 -3 69 4.8 9.7 0.00 0.00 0.00 94 1007.7
20211208133003 -3 64 4.8 11.3 0.00 0.00 0.00 94 1007.7
20211208132503 -3 64 6.4 14.5 0.00 0.00 0.00 94 1007.7
20211208132003 -3 65 6.4 20.9 0.00 0.00 0.00 94 1007.7
20211208131504 -3 64 6.4 20.9 0.00 0.00 0.00 94 1007.7
20211208131003 -3 67 6.4 17.7 0.00 0.00 0.00 94 1007.8
20211208130503 -3 69 4.8 14.5 0.00 0.00 0.00 94 1007.8
20211208130004 -3 69 3.2 11.3 0.00 0.00 0.00 94 1007.9
20211208125503 -3 72 3.2 11.3 0.00 0.00 0.00 93 1008.0
20211208125003 -3 72 3.2 12.9 0.00 0.00 0.00 93 1008.0
20211208124504 -3 68 4.8 16.1 0.00 0.00 0.00 93 1008.0
20211208124004 -3 67 4.8 16.1 0.00 0.00 0.00 93 1008.0
20211208123504 -3 67 4.8 14.5 0.00 0.00 0.00 93 1008.0
20211208123003 -3 70 4.8 14.5 0.00 0.00 0.00 93 1008.1
20211208122503 -3 79 3.2 14.5 0.00 0.00 0.00 93 1008.0
20211208122003 -3 77 4.8 14.5 0.00 0.00 0.00 93 1008.1
20211208121503 -3 75 4.8 12.9 0.00 0.00 0.00 93 1008.1
20211208121004 -3 69 4.8 16.1 0.00 0.00 0.00 93 1008.1
20211208120503 -3 71 6.4 17.7 0.00 0.00 0.00 93 1008.1
20211208120004 -3 83 4.8 17.7 0.00 0.00 0.00 93 1008.1
20211208115505 -2 76 6.4 14.5 0.00 0.00 0.00 93 1008.1
20211208115003 -3 70 6.4 16.1 0.00 0.00 0.00 93 1008.1
20211208114503 -3 69 6.4 16.1 0.00 0.00 0.00 93 1008.1
20211208114003 -3 67 8.0 16.1 0.00 0.00 0.00 93 1008.2
20211208113503 -3 67 6.4 16.1 0.00 0.00 0.00 92 1008.2
20211208113003 -2 71 4.8 14.5 0.00 0.00 0.00 92 1008.1
20211208112504 -2 78 4.8 14.5 0.00 0.00 0.00 92 1008.1
20211208112003 -2 84 3.2 14.5 0.00 0.00 0.00 93 1008.1
20211208111505 -2 111 3.2 12.9 0.00 0.00 0.00 93 1008.2
20211208111005 -2 103 4.8 17.7 0.00 0.00 0.00 92 1008.3
20211208110503 -2 80 4.8 17.7 0.00 0.00 0.00 92 1008.3
20211208110004 -2 73 4.8 16.1 0.00 0.00 0.00 92 1008.4
20211208105503 -3 80 6.4 16.1 0.00 0.00 0.00 92 1008.4
20211208105003 -3 111 4.8 12.9 0.00 0.00 0.00 92 1008.5
20211208104504 -3 130 3.2 12.9 0.00 0.00 0.00 92 1008.5
20211208104003 -3 79 4.8 17.7 0.00 0.00 0.00 93 1008.7
20211208103505 -3 71 3.2 17.7 0.00 0.00 0.00 93 1008.8
20211208103004 -3 88 1.6 11.3 0.00 0.00 0.00 93 1008.9
20211208102505 -3 78 3.2 11.3 0.00 0.00 0.00 93 1008.9
20211208102005 -3 67 3.2 11.3 0.00 0.00 0.00 93 1009.0
20211208101503 -3 83 3.2 11.3 0.00 0.00 0.00 93 1008.9
20211208101004 -3 83 4.8 16.1 0.00 0.00 0.00 93 1009.0
20211208100504 -3 77 6.4 16.1 0.00 0.00 0.00 93 1009.0
20211208100004 -3 74 4.8 14.5 0.00 0.00 0.00 93 1009.2
20211208095505 -3 80 3.2 12.9 0.00 0.00 0.00 93 1009.3
20211208095004 -3 94 3.2 16.1 0.00 0.00 0.00 93 1009.4
20211208094504 -3 107 4.8 17.7 0.00 0.00 0.00 93 1009.4
20211208094004 -3 83 4.8 17.7 0.00 0.00 0.00 93 1009.3
20211208093504 -3 66 6.4 17.7 0.00 0.00 0.00 93 1009.4
20211208093004 -3 63 6.4 19.3 0.00 0.00 0.00 93 1009.4
20211208092504 -3 63 4.8 19.3 0.00 0.00 0.00 94 1009.3
20211208092004 -3 71 4.8 19.3 0.00 0.00 0.00 94 1009.3
20211208091504 -3 70 4.8 16.1 0.00 0.00 0.00 94 1009.3
20211208091004 -3 68 4.8 20.9 0.00 0.00 0.00 94 1009.3
20211208090504 -3 76 4.8 20.9 0.00 0.00 0.00 94 1009.2
20211208090003 -3 75 4.8 17.7 0.00 0.00 0.00 94 1009.5
20211208085004 -3 74 6.4 14.5 0.00 0.00 0.00 94 1009.4
20211208084504 -3 83 6.4 17.7 0.00 0.00 0.00 94 1009.5
20211208084004 -3 81 4.8 19.3 0.00 0.00 0.00 94 1009.4
20211208083504 -3 71 4.8 19.3 0.00 0.00 0.00 95 1009.4
20211208083005 -3 76 4.8 14.5 0.00 0.00 0.00 95 1009.5
20211208082504 -3 73 4.8 14.5 0.00 0.00 0.00 95 1009.4
20211208082005 -3 76 4.8 16.1 0.00 0.00 0.00 95 1009.4
20211208081004 -3 71 4.8 16.1 0.00 0.00 0.00 95 1009.7
20211208080504 -3 75 6.4 20.9 0.00 0.00 0.00 95 1009.6
20211208080005 -3 73 4.8 20.9 0.00 0.00 0.00 95 1009.5
20211208075504 -3 67 4.8 14.5 0.00 0.00 0.00 95 1009.6
20211208075005 -3 71 4.8 20.9 0.00 0.00 0.00 95 1009.6
20211208074505 -3 73 4.8 20.9 0.00 0.00 0.00 95 1009.6
20211208074004 -3 71 4.8 19.3 0.00 0.00 0.00 95 1009.6
20211208073505 -3 69 4.8 19.3 0.00 0.00 0.00 95 1009.5
20211208073004 -3 67 6.4 16.1 0.00 0.00 0.00 95 1009.6
20211208072504 -3 65 4.8 17.7 0.00 0.00 0.00 95 1009.5
20211208072004 -3 70 4.8 17.7 0.00 0.00 0.00 95 1009.5
20211208071505 -4 71 8.0 17.7 0.00 0.00 0.00 95 1009.3
20211208071005 -3 68 6.4 17.7 0.00 0.00 0.00 95 1009.2
20211208070505 -3 65 6.4 17.7 0.00 0.00 0.00 95 1009.2
20211208070005 -3 68 6.4 17.7 0.00 0.00 0.00 95 1009.2
20211208065505 -3 68 6.4 17.7 0.00 0.00 0.00 95 1009.3
20211208065007 -3 71 4.8 17.7 0.00 0.00 0.00 96 1009.2
20211208064506 -3 71 4.8 17.7 0.00 0.00 0.00 96 1009.3
20211208064005 -3 67 6.4 17.7 0.00 0.00 0.00 96 1009.3
20211208063505 -3 70 4.8 16.1 0.00 0.00 0.00 96 1009.4
20211208063004 -3 69 6.4 16.1 0.00 0.00 0.00 96 1009.5
20211208062504 -3 68 4.8 16.1 0.00 0.00 0.00 96 1009.5
20211208062004 -3 71 4.8 11.3 0.00 0.00 0.00 95 1009.6
20211208061505 -3 76 4.8 14.5 0.00 0.00 0.00 95 1009.6
20211208061006 -3 75 4.8 14.5 0.00 0.00 0.00 95 1009.6
20211208060504 -3 71 4.8 17.7 0.00 0.00 0.00 95 1009.6
20211208060006 -3 71 4.8 17.7 0.00 0.00 0.00 95 1009.7
20211208055506 -3 69 4.8 14.5 0.00 0.00 0.00 95 1009.7
20211208055005 -3 66 6.4 19.3 0.00 0.00 0.00 95 1009.6
20211208054504 -3 68 6.4 19.3 0.00 0.00 0.00 95 1009.7
20211208054006 -3 67 4.8 16.1 0.00 0.00 0.00 95 1009.7
20211208053505 -3 65 4.8 16.1 0.00 0.00 0.00 95 1009.7
20211208053005 -3 65 4.8 14.5 0.00 0.00 0.00 95 1009.6
20211208052505 -3 64 4.8 14.5 0.00 0.00 0.00 95 1009.8
20211208052006 -3 63 6.4 16.1 0.00 0.00 0.00 95 1010.0
20211208051505 -3 61 8.0 16.1 0.00 0.00 0.00 95 1009.9
20211208051005 -3 48 6.4 9.7 0.00 0.00 0.00 95 1009.9
20211208050506 -3 60 4.8 14.5 0.00 0.00 0.00 95 1009.9
20211208050006 -3 67 4.8 14.5 0.00 0.00 0.00 95 1010.0
20211208045504 -3 74 3.2 12.9 0.00 0.00 0.00 95 1010.0
20211208045005 -3 72 3.2 11.3 0.00 0.00 0.00 95 1010.0
20211208044504 -3 68 3.2 11.3 0.00 0.00 0.00 95 1010.0
20211208044005 -3 68 3.2 11.3 0.00 0.00 0.00 95 1010.0
20211208043505 -3 71 4.8 14.5 0.00 0.00 0.00 95 1010.1
20211208043005 -3 70 4.8 14.5 0.00 0.00 0.00 95 1010.1
20211208042505 -3 66 4.8 14.5 0.00 0.00 0.00 95 1010.2
20211208042005 -3 63 4.8 14.5 0.00 0.00 0.00 96 1010.1
20211208041504 -3 65 3.2 14.5 0.00 0.00 0.00 96 1010.2
20211208041005 -3 65 3.2 14.5 0.00 0.00 0.00 96 1010.1
20211208040505 -3 64 3.2 14.5 0.00 0.00 0.00 96 1010.1
20211208040006 -2 64 4.8 17.7 0.00 0.00 0.00 96 1010.0
20211208035506 -2 66 4.8 17.7 0.00 0.00 0.00 96 1009.9
20211208035005 -2 69 4.8 14.5 0.00 0.00 0.00 96 1010.0
20211208034504 -3 67 6.4 16.1 0.00 0.00 0.00 96 1010.1
20211208034004 -2 67 4.8 17.7 0.00 0.00 0.00 96 1010.1
20211208033505 -2 68 4.8 17.7 0.00 0.00 0.00 96 1010.0
20211208033005 -2 68 4.8 20.9 0.00 0.00 0.00 96 1010.1
20211208032506 -2 69 6.4 20.9 0.00 0.00 0.00 96 1010.2
20211208032004 -2 68 6.4 14.5 0.00 0.00 0.00 96 1010.3
20211208031504 -2 70 4.8 12.9 0.00 0.00 0.00 96 1010.4
20211208031004 -2 87 3.2 11.3 0.00 0.00 0.00 96 1010.4
20211208030504 -2 90 4.8 11.3 0.00 0.00 0.00 96 1010.4
20211208030005 -2 70 3.2 11.3 0.00 0.00 0.00 96 1010.5
20211208025505 -2 66 3.2 11.3 0.00 0.00 0.00 96 1010.3
20211208025005 -2 66 3.2 12.9 0.00 0.00 0.00 96 1010.3
20211208024505 -2 70 3.2 12.9 0.00 0.00 0.00 96 1010.5
20211208024004 -2 70 4.8 12.9 0.00 0.00 0.00 96 1010.4
20211208023504 -2 67 4.8 11.3 0.00 0.00 0.00 96 1010.7
20211208023005 -2 65 4.8 14.5 0.00 0.00 0.00 96 1010.6
20211208022506 -2 64 4.8 14.5 0.00 0.00 0.00 96 1010.6
20211208022006 -2 66 3.2 11.3 0.00 0.00 0.00 96 1010.5
20211208021506 -2 68 3.2 11.3 0.00 0.00 0.00 96 1010.6
20211208021005 -2 71 3.2 9.7 0.00 0.00 0.00 96 1010.7
20211208020506 -2 73 3.2 12.9 0.00 0.00 0.00 96 1010.8
20211208020005 -2 74 3.2 12.9 0.00 0.00 0.00 96 1011.0
20211208015505 -2 76 3.2 11.3 0.00 0.00 0.00 96 1011.1
20211208015006 -2 75 3.2 11.3 0.00 0.00 0.00 96 1011.2
20211208014505 -2 68 3.2 11.3 0.00 0.00 0.00 96 1011.3
20211208014005 -2 68 3.2 11.3 0.00 0.00 0.00 96 1011.2
20211208013005 -2 96 3.2 8.0 0.00 0.00 0.00 96 1011.2
20211208012012 -2 74 1.6 6.4 0.00 0.00 0.00 96 1011.3
20211208011512 -2 70 1.6 6.4 0.00 0.00 0.00 96 1011.4
20211208003450 -2 68 3.2 11.3 0.00 0.00 0.00 96 1011.4
20211208002951 -2 68 3.2 11.3 0.00 0.00 0.00 96 1011.4
20211208002451 -2 69 3.2 9.7 0.00 0.00 0.00 96 1011.3
20211208001952 -2 70 1.6 9.7 0.00 0.00 0.00 96 1011.3
20211208001451 -2 71 1.6 4.8 0.00 0.00 0.00 96 1011.4
20211208000951 -2 73 1.6 8.0 0.00 0.00 0.00 96 1011.4
20211208000453 -2 75 3.2 8.0 0.00 0.00 0.00 96 1011.3
20211207235952 -2 74 3.2 11.3 0.00 0.00 0.00 96 1011.3
20211207235452 -2 69 3.2 11.3 0.00 0.00 0.00 96 1011.4
20211207234951 -2 71 3.2 12.9 0.00 0.00 0.00 96 1011.4
20211207234451 -2 72 3.2 12.9 0.00 0.00 0.00 96 1011.5
20211207233952 -1 66 3.2 8.0 0.00 0.00 0.00 96 1011.4
20211207233451 -1 67 3.2 9.7 0.00 0.00 0.00 96 1011.5
20211207232951 -1 69 3.2 11.3 0.00 0.00 0.00 96 1011.5
20211207232450 -1 68 3.2 11.3 0.00 0.00 0.00 96 1011.5
20211207231951 -1 63 1.6 11.3 0.00 0.00 0.00 96 1011.6
20211207231451 -1 64 1.6 6.4 0.00 0.00 0.00 96 1011.6
20211207230450 -1 61 1.6 6.4 0.00 0.00 0.00 96 1011.6
20211207225952 -1 62 1.6 8.0 0.00 0.00 0.00 96 1011.7
20211207225451 -1 62 3.2 8.0 0.00 0.00 0.00 96 1011.8
20211207224950 -1 59 3.2 8.0 0.00 0.00 0.00 96 1011.8
20211207223952 -1 60 1.6 9.7 0.00 0.00 0.00 96 1012.0
20211207223451 -1 60 3.2 9.7 0.00 0.00 0.00 96 1011.9
20211207222953 -1 61 3.2 9.7 0.00 0.00 0.00 96 1011.9
20211207222451 -1 60 3.2 8.0 0.00 0.00 0.00 96 1011.9
20211207221951 -1 60 3.2 8.0 0.00 0.00 0.00 96 1012.1
20211207221451 -1 64 3.2 8.0 0.00 0.00 0.00 96 1012.1
20211207220952 -1 63 1.6 8.0 0.00 0.00 0.00 96 1012.1
20211207220451 -1 62 1.6 8.0 0.00 0.00 0.00 96 1012.1
20211207215951 -1 68 1.6 4.8 0.00 0.00 0.00 96 1012.1
20211207215452 -1 59 1.6 4.8 0.00 0.00 0.00 96 1012.1
20211207214951 -1 56 0.0 4.8 0.00 0.00 0.00 96 1012.2
20211207214451 -1 64 0.0 3.2 0.00 0.00 0.00 96 1012.4
20211207213952 -1 59 1.6 3.2 0.00 0.00 0.00 96 1012.3
20211207213451 -1 60 1.6 3.2 0.00 0.00 0.00 96 1012.3
20211207212951 -1 61 1.6 6.4 0.00 0.00 0.00 96 1012.4
20211207212451 -1 59 1.6 6.4 0.00 0.00 0.00 96 1012.4
20211207211951 -1 60 1.6 3.2 0.00 0.00 0.00 96 1012.3
20211207211451 -1 61 1.6 3.2 0.00 0.00 0.00 96 1012.3
20211207210952 -1 60 0.0 3.2 0.00 0.00 0.00 96 1012.4
20211207210452 -1 60 0.0 3.2 0.00 0.00 0.00 96 1012.5
20211207205951 -1 67 0.0 1.6 0.00 0.00 0.00 96 1012.6
20211207205451 -1 70 0.0 1.6 0.00 0.00 0.00 96 1012.6
20211207204951 -1 61 0.0 3.2 0.00 0.00 0.00 96 1012.7
20211207203951 -1 0 0.0 0.0 0.00 0.00 0.00 96 1012.7
20211207203451 -1 0 0.0 0.0 0.00 0.00 0.00 96 1012.7
20211207202951 -1 57 0.0 1.6 0.00 0.00 0.00 96 1012.7
20211207202451 -1 57 0.0 1.6 0.00 0.00 0.00 96 1012.7
20211207201952 -1 57 0.0 1.6 0.00 0.00 0.00 96 1012.7
20211207201451 -1 59 0.0 1.6 0.00 0.00 0.00 96 1012.6
20211207200951 -1 60 0.0 1.6 0.00 0.00 0.00 96 1012.6
20211207200451 -1 63 0.0 1.6 0.00 0.00 0.00 96 1012.6
20211207195953 -1 71 0.0 3.2 0.00 0.00 0.00 96 1012.5
20211207195451 -1 76 0.0 3.2 0.00 0.00 0.00 96 1012.5
20211207194951 -1 78 0.0 1.6 0.00 0.00 0.00 96 1012.4
20211207194451 -1 70 0.0 3.2 0.00 0.00 0.00 96 1012.5
20211207193953 -1 64 0.0 3.2 0.00 0.00 0.00 96 1012.5
20211207193453 -1 66 0.0 3.2 0.00 0.00 0.00 96 1012.5
20211207192951 -1 69 0.0 3.2 0.00 0.00 0.00 96 1012.5
20211207192451 -1 59 1.6 4.8 0.00 0.00 0.00 96 1012.5
20211207191951 -1 58 1.6 4.8 0.00 0.00 0.00 96 1012.6
20211207191452 -1 62 0.0 1.6 0.00 0.00 0.00 96 1012.7
20211207190952 -1 61 0.0 3.2 0.00 0.00 0.00 96 1012.7
20211207190452 -1 60 0.0 3.2 0.00 0.00 0.00 96 1012.7
20211207185953 -1 62 1.6 4.8 0.00 0.00 0.00 96 1012.6
20211207185453 -1 62 3.2 8.0 0.00 0.00 0.00 96 1012.6
20211207184952 -1 62 3.2 8.0 0.00 0.00 0.00 96 1012.6
20211207184452 -1 56 1.6 4.8 0.00 0.00 0.00 96 1012.5
20211207183953 -1 54 1.6 4.8 0.00 0.00 0.00 96 1012.4
20211207183453 -1 55 1.6 4.8 0.00 0.00 0.00 96 1012.4
20211207182952 -1 55 1.6 4.8 0.00 0.00 0.00 96 1012.3
20211207182451 -1 60 1.6 4.8 0.00 0.00 0.00 96 1012.4
20211207181951 -1 57 1.6 4.8 0.00 0.00 0.00 96 1012.4
20211207181451 -1 55 1.6 4.8 0.00 0.00 0.00 96 1012.5
20211207180952 -1 56 1.6 6.4 0.00 0.00 0.00 96 1012.5
20211207180452 -1 54 1.6 6.4 0.00 0.00 0.00 96 1012.5
20211207175952 -1 51 0.0 4.8 0.00 0.00 0.00 96 1012.5
20211207175452 -1 53 0.0 3.2 0.00 0.00 0.00 96 1012.5
20211207174952 -1 58 1.6 4.8 0.00 0.00 0.00 96 1012.5
20211207174452 -1 57 1.6 6.4 0.00 0.00 0.00 96 1012.5
20211207173952 -1 60 1.6 6.4 0.00 0.00 0.00 96 1012.5
20211207173452 -1 59 1.6 4.8 0.00 0.00 0.00 96 1012.5
20211207172952 -1 59 1.6 4.8 0.00 0.00 0.00 96 1012.5
20211207172453 -1 63 1.6 4.8 0.00 0.00 0.00 96 1012.5
20211207171952 -1 61 1.6 4.8 0.00 0.00 0.00 96 1012.5
20211207170452 -1 59 1.6 4.8 0.00 0.00 0.00 96 1012.6
20211207165953 -1 60 1.6 4.8 0.00 0.00 0.00 96 1012.6
20211207165453 -1 59 0.0 4.8 0.00 0.00 0.00 96 1012.6
20211207164952 -1 57 1.6 4.8 0.00 0.00 0.00 96 1012.6
20211207164452 -1 57 1.6 3.2 0.00 0.00 0.00 96 1012.6
20211207163952 -1 61 1.6 4.8 0.00 0.00 0.00 96 1012.6
20211207163452 -1 58 1.6 4.8 0.00 0.00 0.00 96 1012.7
20211207162953 -1 56 1.6 4.8 0.00 0.00 0.00 96 1012.7
20211207162453 -1 62 1.6 6.4 0.00 0.00 0.00 96 1012.7
20211207161953 -1 66 0.0 6.4 0.00 0.00 0.00 96 1012.6
20211207161453 -1 51 0.0 3.2 0.00 0.00 0.00 96 1012.6
20211207160954 -1 52 1.6 3.2 0.00 0.00 0.00 95 1012.6
20211207160453 -1 59 1.6 4.8 0.00 0.00 0.00 95 1012.5
20211207155953 -1 61 1.6 4.8 0.00 0.00 0.00 95 1012.4
20211207155452 -1 64 1.6 6.4 0.00 0.00 0.00 95 1012.5
20211207154953 -1 63 1.6 6.4 0.00 0.00 0.00 95 1012.5
20211207154453 -1 48 1.6 4.8 0.00 0.00 0.00 95 1012.5
20211207153953 -1 49 1.6 4.8 0.00 0.00 0.00 95 1012.5
20211207152953 -1 48 1.6 6.4 0.00 0.00 0.00 95 1012.5
20211207152452 -1 46 1.6 4.8 0.00 0.00 0.00 95 1012.4
20211207151953 -1 52 1.6 4.8 0.00 0.00 0.00 95 1012.4
20211207151453 -1 58 0.0 3.2 0.00 0.00 0.00 95 1012.3
20211207150952 -1 28 0.0 3.2 0.00 0.00 0.00 95 1012.3
20211207150453 -1 27 0.0 3.2 0.00 0.00 0.00 95 1012.3
20211207144952 -1 54 0.0 3.2 0.00 0.00 0.00 95 1012.4
20211207144453 -1 55 1.6 3.2 0.00 0.00 0.00 95 1012.4
20211207143952 -1 60 1.6 4.8 0.00 0.00 0.00 95 1012.2
20211207143452 -1 55 1.6 4.8 0.00 0.00 0.00 95 1012.3
20211207142953 -1 52 1.6 4.8 0.00 0.00 0.00 95 1012.2
20211207142453 -1 58 1.6 3.2 0.00 0.00 0.00 95 1012.3
20211207141952 -1 56 1.6 3.2 0.00 0.00 0.00 95 1012.3
20211207141454 -1 59 1.6 6.4 0.00 0.00 0.00 95 1012.2
20211207140954 -1 56 1.6 6.4 0.00 0.00 0.00 95 1012.1
20211207140453 -1 47 1.6 3.2 0.00 0.00 0.00 95 1012.1
20211207135953 -1 52 1.6 6.4 0.00 0.00 0.00 95 1012.1
20211207135454 -1 55 1.6 6.4 0.00 0.00 0.00 95 1012.1